GEFSNE_500_meanwind_006.txt.gz
Wind_Speed
66 67 68 70 72 72 72 72 71 70 69 68 67 66 66 66 66 65 65 65 64 64 63 63 63 62 61 59 58 60 60 59 59 61 61 60 58 57
55 55 57 61 64 65 65 66 67 67 66 66 65 65 64 63 64 64 64 64 63 63 62 61 61 60 59 58 58 58 58 58 58 59 59 59 59 59
51 53 53 55 59 60 60 62 63 65 65 66 66 65 65 64 64 64 64 64 63 63 62 62 61 60 58 57 57 57 57 58 59 59 60 60 60 60
49 52 53 54 60 61 62 62 63 65 65 65 66 66 65 64 63 63 64 63 62 61 60 59 58 59 58 57 57 57 58 59 60 61 61 61 60 59
49 48 49 53 56 58 57 57 57 57 58 58 58 59 59 59 59 60 60 59 58 58 58 57 57 58 58 58 58 59 60 61 61 61 62 62 60 58
49 45 43 45 48 50 51 51 52 52 52 53 53 54 55 55 56 57 58 59 58 58 58 59 59 61 61 59 59 58 58 58 57 56 55 55 55 54
46 44 40 40 43 45 47 47 48 48 49 50 52 53 54 55 56 55 56 57 59 59 60 60 60 60 61 60 59 58 56 53 51 49 48 48 48 49
42 41 40 40 42 44 44 45 45 46 46 48 50 53 54 56 57 56 55 56 58 58 58 59 58 58 58 57 57 57 53 49 47 46 46 46 46 47
38 39 40 41 43 44 44 44 44 44 45 47 48 50 52 55 57 56 55 56 57 56 55 55 55 56 56 54 53 52 51 49 47 46 45 45 44 44
36 38 39 42 43 44 43 43 44 46 47 49 49 49 50 52 55 57 57 56 55 54 52 51 51 51 50 49 47 47 48 48 47 46 46 45 44 43
34 36 39 40 41 41 41 41 43 45 47 49 49 48 46 47 49 52 53 53 52 49 48 48 48 48 47 45 44 45 47 48 47 46 45 44 43 43
35 37 39 39 39 39 39 39 38 39 42 45 45 45 46 47 46 46 47 48 48 46 45 45 46 46 45 44 43 44 46 48 48 47 46 45 44 44
36 37 38 40 40 40 39 38 37 36 37 41 42 42 43 44 44 44 45 46 45 43 42 42 42 43 43 43 44 45 46 48 48 48 47 46 46 47
37 37 38 39 41 41 40 40 38 37 37 37 39 41 41 42 42 43 44 44 44 42 41 40 39 39 39 39 41 43 45 46 46 46 47 48 49 49
39 39 39 40 41 42 42 41 40 40 40 39 39 40 41 42 42 43 43 45 45 46 46 45 43 42 41 39 40 42 44 46 47 47 48 50 50 50
45 44 43 42 43 43 44 43 42 41 41 41 40 39 40 41 42 43 43 44 45 46 46 46 45 44 44 44 44 44 45 47 49 50 50 51 51 52
52 51 49 48 48 47 46 45 45 44 43 43 42 40 40 40 41 41 41 42 42 42 42 41 40 41 42 44 46 47 48 49 50 52 53 54 55 55
55 55 55 55 54 53 51 49 48 47 46 45 44 43 43 43 42 42 42 42 42 42 42 40 40 40 41 44 46 49 52 53 55 56 57 57 58 59
58 58 59 58 58 58 57 56 53 51 50 50 49 49 48 47 47 46 45 45 44 43 43 43 42 40 40 42 45 49 53 55 57 58 59 59 58 58
62 62 62 62 62 61 61 60 59 58 56 55 54 54 53 52 52 52 51 50 49 48 47 47 45 43 42 42 44 47 51 53 55 56 58 58 58 57
65 65 65 65 65 65 64 64 63 63 62 61 59 58 58 57 57 56 57 56 54 53 51 51 49 47 45 45 45 47 50 51 51 52 53 54 54 53
62 66 68 68 68 68 68 68 67 67 67 66 66 65 64 63 62 61 60 59 58 56 55 54 54 53 50 48 48 49 50 50 50 50 50 49 49 48
47 55 62 67 70 71 71 71 70 70 70 69 69 69 69 68 68 67 66 65 63 61 60 59 58 58 57 54 52 51 51 50 49 48 48 48 46 44

GEFSNE_500_meanwind_012.txt.gz
Wind_Speed
76 78 79 79 78 78 79 81 81 79 78 75 73 71 71 71 71 71 70 68 65 64 62 62 62 62 61 60 59 58 56 55 54 54 53 53 53 53
65 66 66 68 69 71 73 77 79 80 80 78 76 75 74 73 72 72 72 70 68 66 65 66 66 65 65 64 63 63 62 60 59 59 58 57 57 57
54 56 55 56 58 60 63 67 72 76 79 79 78 77 76 75 74 73 73 72 71 70 69 68 68 68 68 68 67 66 66 64 63 62 62 61 61 60
44 48 48 50 56 60 62 61 62 65 70 73 76 76 76 75 74 73 73 72 72 71 70 70 69 69 69 70 69 68 67 66 65 65 64 65 64 62
38 46 48 50 53 56 56 55 55 56 59 63 67 70 71 71 71 71 71 71 71 71 71 70 69 68 68 68 67 67 67 67 67 66 65 65 64 62
37 43 48 50 51 54 53 52 51 50 51 54 57 61 63 63 64 65 66 68 68 68 68 68 67 66 66 66 66 67 67 66 65 65 65 65 64 64
35 38 44 46 48 49 50 50 50 50 50 52 53 55 56 58 58 58 60 61 63 64 64 65 66 66 67 66 66 65 64 64 64 64 65 65 65 63
36 37 40 43 44 45 46 47 48 48 49 50 53 56 57 57 58 57 57 58 60 61 63 65 65 66 65 64 63 63 63 63 63 63 63 63 63 63
38 38 40 42 42 44 45 46 47 47 46 47 50 54 57 58 57 57 57 58 57 57 58 60 61 61 61 61 61 60 60 60 60 61 61 61 62 62
43 42 42 41 42 44 46 46 47 47 45 45 47 51 54 54 53 54 54 54 53 53 53 53 54 55 55 56 56 57 58 59 59 60 60 60 60 60
43 45 45 43 43 44 46 48 49 48 47 46 48 49 51 51 50 50 50 50 50 50 50 51 50 51 52 51 52 53 54 56 58 59 59 60 59 59
42 44 46 46 46 46 47 49 51 51 50 50 49 49 49 49 49 48 48 47 48 49 50 50 50 51 52 52 52 53 53 54 55 56 57 58 58 58
39 41 44 46 47 47 48 50 52 53 53 53 52 50 50 50 49 48 47 47 47 47 48 50 51 52 53 54 55 55 55 55 54 54 54 55 55 54
40 40 41 42 44 45 47 49 51 52 53 54 53 52 51 50 50 49 47 47 48 48 49 50 52 53 54 55 55 56 56 54 53 52 51 50 49 48
43 42 41 41 42 43 44 46 48 50 51 52 52 51 50 49 49 48 47 47 48 49 50 51 52 52 53 53 54 55 54 52 50 48 46 45 45 44
46 45 44 42 42 43 44 45 46 47 48 50 50 50 49 48 47 46 45 45 46 47 49 50 50 50 50 51 51 51 50 48 46 44 43 42 42 41
48 48 47 46 45 44 45 46 47 47 48 49 49 49 48 48 47 46 45 43 43 44 46 47 48 48 47 46 46 45 44 43 41 40 40 40 40 39
51 51 50 50 49 48 47 47 47 48 49 49 50 50 50 49 47 46 45 43 41 41 42 43 44 44 44 44 44 43 42 40 38 37 37 36 36 36
50 52 53 53 53 52 51 50 49 49 50 50 49 49 49 49 48 46 45 43 41 40 40 41 41 41 42 43 43 43 41 39 38 36 35 34 34 34
41 48 53 55 56 56 55 54 53 52 51 51 50 49 49 49 48 46 45 43 41 40 40 40 41 41 41 42 43 43 42 41 39 38 36 34 34 33
29 37 46 53 57 58 59 58 57 56 55 53 52 51 50 49 48 47 46 44 42 41 41 40 41 41 41 42 43 43 42 40 38 37 35 33 31 29
21 26 34 43 52 58 60 61 61 60 59 58 57 55 54 53 51 49 47 46 44 43 42 41 41 41 42 42 42 41 40 38 37 35 33 31 29 27
17 19 24 31 40 49 57 61 63 63 63 62 61 60 59 58 56 54 51 49 48 46 44 43 42 42 41 41 40 39 38 37 36 35 34 32 30 28

GEFSNE_500_meanwind_018.txt.gz
Wind_Speed
64 73 79 83 86 87 88 87 86 84 82 78 75 74 73 73 74 74 74 72 70 67 65 63 62 62 61 61 60 58 56 54 52 51 51 50 49 48
46 55 64 71 78 83 87 88 88 87 86 83 80 77 75 74 73 73 74 74 73 71 69 67 66 64 64 63 62 62 60 58 57 55 55 54 52 51
37 42 48 55 64 73 80 85 87 88 88 86 86 82 79 77 75 74 73 73 73 73 72 70 69 68 67 66 65 64 62 61 60 58 57 56 55 54
36 37 39 43 49 57 66 74 80 83 86 86 87 86 84 81 79 77 76 74 73 72 72 71 71 70 69 68 67 66 65 64 62 60 59 59 59 59
37 37 38 40 42 48 54 62 68 73 77 80 83 85 84 83 81 80 79 77 76 74 73 71 71 72 72 71 69 68 68 67 65 64 62 62 62 62
39 38 38 39 40 43 47 53 58 63 67 71 75 77 79 80 80 80 81 80 78 77 76 73 72 71 71 71 71 72 72 71 69 67 66 65 65 65
40 39 38 37 36 37 40 45 49 53 57 61 64 68 71 72 74 75 77 78 79 78 77 75 74 72 71 71 71 72 72 72 72 71 69 69 68 67
40 38 36 35 33 33 34 39 44 49 53 56 60 63 66 67 69 69 70 73 75 76 76 76 76 76 75 73 72 71 72 73 74 73 73 73 73 73
41 39 37 35 33 33 35 40 44 47 53 56 58 60 63 65 65 65 66 67 69 71 73 74 75 75 75 76 76 76 77 76 76 77 76 76 76 77
42 41 39 37 37 38 39 43 45 47 51 54 56 56 58 60 62 63 63 61 63 66 70 71 73 73 74 75 76 78 79 80 80 80 79 78 78 78
45 45 43 42 41 42 42 44 46 46 48 50 51 51 52 53 55 56 56 56 56 58 61 64 67 69 71 73 74 75 77 78 78 79 80 79 79 78
47 48 47 47 47 46 45 44 44 44 45 46 48 48 47 47 48 50 50 51 51 53 55 57 59 62 64 67 69 70 72 73 74 75 75 75 76 76
48 49 50 49 50 50 48 46 44 42 42 43 45 47 47 47 47 48 49 49 50 50 51 53 54 56 58 59 60 62 64 66 67 69 70 70 71 72
48 49 50 51 51 52 51 49 47 44 43 42 43 45 47 47 48 49 49 50 50 51 52 53 53 54 54 55 56 57 58 59 62 63 64 65 65 66
47 49 49 51 51 51 52 52 50 48 46 45 44 45 46 48 50 50 50 50 50 51 52 53 54 54 55 56 55 56 56 55 56 57 58 58 59 59
46 47 48 49 50 51 51 51 51 50 49 49 48 48 48 49 50 51 51 50 50 51 52 52 53 54 55 57 57 57 56 55 55 55 54 54 55 55
41 46 47 48 48 50 50 50 50 50 51 51 51 52 52 52 52 52 52 51 50 49 49 50 51 52 53 55 56 56 55 55 54 54 54 54 54 54
33 41 45 47 48 49 49 49 48 48 49 51 53 54 55 56 56 56 55 54 52 51 49 49 50 51 52 52 53 52 52 52 52 53 53 53 53 54
24 33 41 46 48 49 49 49 48 47 47 48 50 53 55 57 58 59 58 57 56 54 52 50 50 50 50 50 50 49 49 50 51 52 53 53 53 53
17 23 32 41 46 49 50 50 50 48 47 46 46 48 51 54 56 58 59 59 58 56 54 52 50 50 49 49 48 48 48 48 49 50 51 51 51 51
13 16 22 31 40 47 50 51 51 50 48 46 45 45 46 49 50 53 55 57 57 56 54 52 50 48 47 47 46 45 45 45 46 47 47 47 47 47
12 14 17 22 30 40 47 51 52 52 51 49 47 45 45 45 46 48 50 52 53 52 52 50 48 46 45 45 44 43 42 42 42 42 43 43 42 42
10 12 15 18 22 29 39 47 51 53 52 51 50 48 46 45 45 45 47 48 49 49 48 47 46 45 44 43 43 42 41 40 39 39 38 38 38 38

GEFSNE_500_meanwind_024.txt.gz
Wind_Speed
44 42 42 46 59 76 89 92 92 90 88 85 80 75 71 70 72 71 69 67 68 70 69 66 63 60 57 55 52 50 48 46 46 46 48 48 47 46
42 40 39 40 49 64 79 89 91 91 89 86 84 80 75 70 69 69 69 68 67 68 69 67 65 62 60 58 56 53 51 49 47 46 47 48 48 47
40 38 37 37 41 52 67 80 87 90 90 87 85 83 80 75 70 69 68 66 66 66 67 67 66 64 63 61 59 57 55 53 51 50 50 51 50 49
40 37 36 35 36 43 55 68 79 86 89 89 86 85 83 80 75 71 68 66 66 66 66 66 66 65 64 63 62 60 58 56 54 54 54 53 52 51
39 37 36 34 34 38 45 57 68 77 84 87 86 85 84 82 79 75 71 68 67 66 66 65 65 64 64 64 62 61 59 58 57 57 57 56 55 53
39 38 36 34 33 35 39 46 56 66 75 81 84 84 84 82 80 77 74 70 69 68 66 65 63 63 63 63 63 62 61 60 59 58 57 57 56 55
39 38 37 36 34 34 36 39 46 54 63 71 77 80 82 82 80 77 75 72 70 68 67 66 64 62 62 62 62 62 62 61 60 59 59 58 57 56
39 39 38 37 36 35 35 37 40 45 52 59 65 71 76 79 78 76 74 73 71 70 67 66 65 64 62 61 61 61 61 61 61 62 60 59 59 59
39 39 39 38 37 36 36 36 38 41 45 50 57 63 68 74 75 75 74 72 70 69 68 67 66 65 64 62 61 62 61 61 61 60 60 59 60 60
38 40 39 39 37 36 36 35 36 37 39 43 49 54 59 64 68 70 70 70 69 68 68 67 66 65 64 64 63 62 62 62 62 62 61 61 61 61
38 40 40 40 39 37 36 34 34 34 35 37 42 47 52 57 61 65 67 67 66 67 67 66 66 65 65 65 65 65 64 63 63 63 63 63 63 63
35 40 41 41 40 39 37 35 33 32 31 32 34 40 47 53 58 62 62 62 62 64 64 64 64 65 65 65 65 65 65 64 64 64 65 65 66 66
33 39 42 43 42 41 39 37 35 32 30 29 31 34 39 46 53 56 58 58 58 60 62 63 65 65 66 66 67 66 66 67 68 68 69 68 68 68
29 37 42 44 44 43 41 39 37 34 33 32 32 34 36 41 47 51 53 54 56 57 58 60 62 62 63 64 65 65 67 68 70 70 70 71 71 72
25 34 41 44 46 46 44 42 40 37 36 36 36 38 40 44 47 50 53 55 55 55 56 56 58 59 61 61 62 64 66 67 68 69 71 72 73 73
20 29 37 43 46 47 47 45 43 41 40 40 39 41 44 46 49 51 55 55 54 55 55 53 53 53 53 54 56 59 62 63 64 66 67 69 70 70
15 23 32 40 45 47 48 47 46 45 43 43 43 44 45 47 49 50 52 54 53 53 52 52 50 49 49 49 50 51 51 53 54 56 57 58 60 60
10 17 26 35 42 45 47 49 48 48 47 46 46 46 47 47 47 48 49 50 51 51 51 51 51 50 49 49 48 47 47 46 47 48 48 48 48 49
7 12 19 28 37 43 46 48 49 49 49 49 48 48 48 48 48 48 48 48 49 49 49 50 50 49 49 48 48 47 46 46 45 45 45 45 45 45
7 8 13 21 30 38 44 46 48 49 50 50 50 50 49 49 49 49 48 48 48 48 48 49 49 48 48 48 48 48 48 47 46 45 45 44 44 44
11 7 9 14 22 31 39 44 47 48 50 51 51 52 52 51 50 49 49 49 49 49 49 49 49 48 48 48 48 48 48 48 47 45 45 45 45 45
26 15 7 9 15 23 32 39 44 47 49 50 50 51 52 52 52 51 51 51 51 51 50 50 51 51 50 50 49 49 48 48 46 45 44 44 44 45
40 31 20 9 8 16 23 32 39 45 47 49 50 50 51 52 52 52 52 52 53 53 53 53 53 53 53 52 51 50 49 47 46 44 44 43 43 43

GEFSNE_500_meanwind_030.txt.gz
Wind_Speed
39 46 52 59 66 68 67 65 64 69 81 91 98 100 99 96 93 89 84 76 71 68 69 71 71 70 66 63 60 57 56 52 49 47 50 54 55 54
35 41 47 54 62 67 67 64 62 64 71 83 93 99 99 98 94 91 87 81 75 71 69 69 70 70 68 65 62 59 56 53 51 49 50 55 57 57
32 36 43 49 57 64 65 63 61 59 63 73 84 93 96 96 94 91 88 84 79 74 71 69 70 70 69 68 65 63 59 56 53 52 51 54 57 59
28 32 38 44 51 59 62 62 60 57 58 65 76 85 91 91 89 89 90 85 82 77 72 70 70 70 69 68 67 65 62 59 56 54 53 52 55 58
25 29 34 39 46 53 58 59 58 56 55 59 70 79 85 87 86 85 87 87 83 80 75 71 70 70 69 68 68 67 65 62 59 56 54 51 51 52
23 26 31 36 41 48 53 55 54 53 52 54 64 75 80 81 81 81 83 86 85 83 79 75 71 69 69 67 66 65 64 64 62 59 56 53 51 50
21 25 29 33 38 44 48 50 49 49 50 50 59 73 80 80 77 76 78 82 84 83 81 78 73 69 67 66 64 64 64 64 63 61 59 57 53 51
20 24 28 31 35 40 43 44 44 44 45 46 54 70 82 85 80 77 78 80 82 81 80 79 76 71 68 66 64 63 63 63 63 62 60 58 57 54
19 24 28 31 33 36 39 39 39 39 40 42 48 65 83 90 84 78 79 80 80 79 78 76 75 72 70 67 65 64 63 64 64 63 62 61 59 57
19 23 28 31 32 34 35 35 34 34 35 37 42 58 78 92 91 81 78 79 79 78 77 74 73 72 69 66 65 64 63 64 64 64 63 62 60 58
18 23 28 31 32 32 33 32 31 29 30 32 36 48 68 85 93 89 79 78 80 79 76 73 72 70 69 66 64 63 62 62 62 62 62 61 60 58
16 23 28 31 32 32 31 30 28 27 26 28 32 40 55 72 87 90 84 78 78 77 74 71 70 69 68 66 63 62 61 60 60 60 59 59 58 56
14 21 27 31 32 32 31 30 28 26 25 25 28 34 46 60 74 83 84 79 76 76 73 70 68 68 67 66 64 63 61 60 59 59 58 57 57 55
11 19 26 30 32 32 31 30 28 27 25 24 26 30 38 50 62 72 79 78 75 73 71 69 65 64 64 64 63 62 61 60 58 57 57 56 56 55
7 15 23 29 31 32 32 31 29 27 26 24 25 27 32 41 51 60 69 73 73 71 69 65 62 62 61 60 61 60 59 58 58 58 57 56 55 55
3 11 19 27 31 33 33 32 30 29 26 25 24 25 29 35 44 52 59 65 69 69 66 63 62 61 58 57 58 58 58 57 56 56 56 55 56 56
2 6 15 23 29 33 33 33 31 30 28 26 25 24 26 31 38 47 53 59 64 66 65 64 62 61 58 56 57 59 57 57 56 55 55 55 57 57
8 1 9 18 26 32 34 34 33 32 30 28 26 25 25 28 34 42 50 55 59 62 63 62 61 60 60 60 57 56 56 56 57 56 56 57 58 60
17 7 2 11 21 28 34 36 35 34 32 31 29 27 27 28 32 37 45 52 57 60 61 61 60 59 59 60 59 58 57 57 57 56 57 59 60 61
29 17 6 4 14 23 31 36 37 37 35 34 32 31 30 30 31 35 40 47 54 59 61 61 59 59 58 58 58 59 60 59 59 60 60 61 61 61
37 28 17 6 6 16 25 32 37 39 38 37 36 35 34 34 33 34 38 42 49 55 58 60 59 58 57 58 59 59 58 57 57 57 57 57 56 55
41 36 28 18 6 7 17 26 34 39 41 41 40 39 38 38 37 37 38 41 46 50 54 57 58 59 58 57 56 56 55 54 52 52 51 50 49 47
43 39 35 28 19 6 6 18 27 36 41 43 44 43 43 42 42 42 41 42 44 47 51 54 56 57 57 56 55 52 50 49 47 46 44 43 42 40

GEFSNE_500_meanwind_036.txt.gz
Wind_Speed
32 35 37 38 40 41 43 49 59 68 76 79 82 89 96 102 104 103 101 99 95 91 86 84 83 81 77 73 63 56 54 54 57 56 55 52 48 45
24 28 31 34 35 38 40 44 53 63 70 75 78 82 90 98 103 103 101 99 96 92 86 81 80 79 79 77 72 63 54 55 53 52 52 51 49 46
17 22 25 29 31 34 37 41 48 58 65 71 74 77 84 91 99 102 101 98 95 92 86 81 77 77 77 75 72 68 59 56 52 51 52 53 51 48
12 17 21 24 27 30 33 38 45 54 61 66 71 74 79 85 94 101 102 97 94 91 87 82 76 74 75 73 72 70 67 59 56 53 53 52 50 49
9 13 17 20 23 26 30 35 41 49 58 63 67 70 74 79 87 96 100 98 96 92 87 82 77 74 73 72 71 71 70 64 60 55 53 51 50 49
8 11 14 16 19 22 26 31 38 46 54 59 64 67 69 73 81 89 97 99 96 93 87 83 79 74 72 69 68 69 69 67 64 59 54 52 50 49
8 10 12 14 17 20 23 29 35 43 51 57 60 63 64 68 74 82 90 96 96 93 90 86 83 78 73 69 67 66 67 67 65 63 60 55 52 49
7 9 11 12 15 17 21 27 33 40 47 53 57 59 60 62 67 74 83 93 95 94 91 88 84 81 77 72 67 64 65 65 64 63 63 60 55 52
6 8 10 12 14 17 21 25 31 38 45 50 54 55 56 57 60 66 75 86 92 93 91 87 84 81 78 75 70 65 63 62 62 62 62 59 56 52
5 6 9 11 13 17 20 25 30 36 42 47 51 52 52 53 55 60 68 75 86 91 90 87 84 81 79 76 72 67 64 62 62 62 62 60 57 54
4 3 7 10 13 16 20 24 29 34 40 44 47 49 49 49 50 54 60 67 76 85 88 85 84 81 79 75 73 69 66 63 61 61 61 60 59 56
6 1 6 10 14 17 20 24 28 33 37 41 44 46 46 46 47 50 54 60 68 76 83 82 82 80 78 77 73 71 69 67 64 62 60 60 59 58
9 2 5 10 14 17 21 24 27 31 34 37 40 42 43 44 45 48 53 57 63 68 75 77 79 79 78 77 75 72 70 68 66 63 61 60 59 59
12 5 5 10 15 18 20 23 26 29 31 34 36 38 40 41 43 47 53 58 61 65 69 70 72 75 77 77 76 74 72 70 68 65 62 61 60 59
17 8 6 10 14 17 20 22 25 27 28 30 32 34 37 39 42 46 52 59 62 65 67 68 67 67 70 72 74 75 73 71 69 67 64 63 61 60
22 13 6 8 13 16 19 21 23 24 25 27 28 30 32 36 39 46 53 60 65 68 68 68 68 64 64 66 69 72 72 71 69 67 66 64 62 61
28 17 9 6 10 14 17 19 21 22 23 24 24 26 28 31 34 41 51 61 68 70 69 68 67 65 62 63 65 68 70 69 68 66 64 63 62 61
34 23 13 5 7 12 15 17 20 21 21 21 21 22 24 26 29 35 45 56 66 71 70 69 67 64 61 60 62 64 67 68 68 66 63 62 62 61
37 30 19 9 3 10 14 17 18 20 20 20 19 20 21 23 26 31 38 49 59 68 70 69 68 64 60 58 59 62 63 66 67 65 64 63 62 61
39 34 26 16 6 6 12 16 18 19 20 20 19 19 20 21 24 29 34 42 51 61 67 68 67 64 59 56 55 57 59 61 64 64 62 62 61 60
39 36 32 24 14 3 8 14 18 20 21 21 20 19 19 20 22 27 33 39 46 54 61 64 65 62 58 55 53 52 54 57 59 60 60 59 58 57
38 37 34 29 21 12 1 9 16 20 22 23 22 21 20 20 21 25 31 37 43 49 55 60 62 61 59 55 52 51 52 55 57 58 58 57 56 55
36 35 34 32 27 19 10 2 10 18 22 24 25 24 22 21 21 24 29 35 42 46 51 55 60 61 59 56 53 52 51 50 52 54 55 55 55 53

GEFSNE_500_meanwind_042.txt.gz
Wind_Speed
12 7 5 13 23 33 41 48 51 52 54 54 57 66 81 92 99 107 114 116 116 114 110 106 102 96 91 87 83 78 73 70 68 68 67 65 65 63
10 6 5 9 17 25 34 41 46 48 50 53 54 60 72 84 92 99 107 113 115 114 111 108 104 99 93 89 85 80 74 71 70 68 68 67 66 64
11 8 6 8 13 20 27 34 40 44 46 49 51 54 64 76 85 92 101 108 113 114 112 109 105 101 96 91 86 82 76 73 71 69 68 66 66 65
12 10 8 9 11 16 22 28 34 39 42 44 48 50 58 69 78 86 94 103 110 113 112 109 106 103 98 93 88 83 77 71 69 70 68 67 66 65
13 10 9 9 11 13 18 23 29 33 38 40 44 47 53 63 72 81 89 97 106 111 111 109 107 104 100 95 91 87 81 73 68 67 67 66 65 65
13 10 9 9 10 12 15 20 24 29 33 37 40 43 50 58 67 76 84 93 101 108 110 109 107 104 102 97 93 89 84 77 69 64 64 62 62 62
14 9 7 7 9 11 14 17 21 25 29 33 37 41 47 55 64 72 79 88 97 105 108 109 107 104 101 99 96 91 87 80 71 64 60 57 56 57
15 9 5 5 7 9 11 14 18 22 26 30 34 39 45 53 61 68 76 83 92 101 105 107 106 102 100 99 97 93 88 83 74 65 58 53 51 52
16 9 4 2 4 7 9 12 15 19 23 27 32 37 44 51 58 66 73 79 87 96 102 103 102 100 97 96 95 93 89 85 79 70 63 57 52 49
19 12 7 2 2 5 7 9 12 16 21 25 30 36 43 50 56 62 69 75 80 90 98 100 99 96 92 89 90 90 88 83 77 71 66 60 52 48
21 15 9 5 2 3 5 8 10 14 18 23 29 35 42 49 55 60 65 71 76 83 93 96 95 92 89 85 84 86 84 80 75 69 65 61 57 51
24 17 11 8 5 4 5 7 9 12 16 22 28 34 41 47 52 57 62 67 71 77 88 92 93 90 86 82 78 79 80 76 72 68 64 60 58 54
26 19 14 10 7 6 6 7 8 10 14 20 27 34 40 45 50 53 58 62 67 72 81 88 89 88 85 81 77 76 75 73 69 66 64 60 57 55
28 21 15 11 9 7 7 7 8 10 14 19 26 32 38 43 47 49 53 57 62 67 73 81 85 85 82 78 75 74 73 72 68 64 62 60 59 56
30 22 16 11 9 8 7 8 9 11 14 19 25 31 36 40 43 46 48 51 56 62 69 76 79 81 80 77 74 74 73 71 68 65 62 60 59 58
33 24 17 12 9 8 8 8 10 12 15 19 25 30 35 38 41 43 45 47 50 56 63 70 75 77 77 75 72 71 73 72 69 66 62 61 60 58
37 29 20 13 9 7 7 8 10 12 15 19 23 28 32 36 38 41 43 44 46 51 57 64 71 74 75 73 71 71 72 72 71 67 63 61 60 58
37 32 23 15 10 6 6 8 10 12 15 18 22 26 30 33 36 39 42 43 45 49 54 60 66 70 72 72 72 70 70 70 69 67 65 62 60 59
36 33 26 18 11 6 5 7 9 12 15 17 20 24 28 31 34 37 40 42 45 48 51 56 61 66 69 71 71 69 67 67 67 66 64 62 59 56
34 32 28 22 14 7 3 5 9 12 14 17 19 22 25 28 31 34 37 41 44 47 50 54 57 62 64 66 69 69 67 65 65 65 64 63 61 57
33 32 29 24 18 10 4 3 8 11 14 16 18 20 23 25 28 31 35 39 43 46 50 54 57 59 61 63 65 68 68 66 65 64 65 65 63 60
33 31 29 26 21 14 7 0 6 11 14 16 18 19 21 23 26 29 33 37 41 45 49 55 59 60 61 63 63 65 66 65 63 63 62 63 62 59
31 31 30 27 24 19 11 4 4 9 14 17 19 20 21 22 24 27 30 34 39 44 49 54 59 61 62 64 64 63 63 63 63 63 62 61 59 58

GEFSNE_500_meanwind_048.txt.gz
Wind_Speed
38 32 28 23 20 17 15 13 17 25 36 47 57 63 65 66 68 75 86 100 112 120 124 124 120 116 111 106 101 97 93 89 84 79 75 71 68 66
38 32 26 22 19 17 14 13 15 22 32 42 51 59 61 61 62 65 74 87 102 114 121 123 122 118 114 109 104 100 96 91 86 81 77 74 70 67
39 32 27 21 18 16 14 13 14 20 28 37 46 54 57 58 58 59 65 76 92 105 116 122 123 120 116 112 107 102 98 94 88 82 78 75 72 69
38 32 27 21 17 15 13 12 13 17 24 32 41 49 53 55 54 55 58 67 81 96 109 118 122 121 118 114 110 105 101 96 92 85 80 76 73 71
39 33 27 21 17 14 13 11 11 14 20 28 36 43 49 52 52 52 53 60 72 87 102 113 119 120 118 115 112 107 103 98 93 87 82 76 74 71
40 34 27 22 17 14 12 10 9 12 17 24 31 38 44 48 49 50 50 54 65 79 93 106 115 119 118 116 112 109 104 100 96 90 84 78 73 70
41 35 29 23 19 15 12 9 8 10 14 20 26 33 39 43 46 47 47 50 58 72 86 99 109 116 118 116 114 111 107 102 98 93 87 80 75 70
41 35 30 24 20 16 12 9 7 8 11 17 23 29 34 39 42 44 45 47 53 66 79 92 104 111 115 116 114 111 108 103 99 95 89 83 78 73
41 35 30 26 21 17 13 9 7 6 8 13 19 25 30 34 38 40 42 44 49 60 72 84 97 105 112 114 114 112 109 104 100 96 91 86 80 76
41 36 30 26 22 18 14 10 7 5 5 10 15 21 26 31 35 37 39 41 47 56 67 77 90 99 106 111 113 112 109 105 100 96 92 86 81 76
41 36 30 26 23 19 16 13 9 6 3 5 10 16 22 28 32 35 37 40 46 54 64 73 83 93 100 107 110 110 109 105 101 97 93 87 80 76
41 36 31 26 23 20 17 15 12 9 5 2 4 10 16 23 28 32 35 40 47 54 61 69 77 87 93 101 107 109 107 105 101 97 94 89 83 77
42 35 30 26 23 20 18 16 13 11 8 5 1 5 11 18 24 30 34 40 47 53 59 67 73 81 87 93 100 104 105 102 100 96 91 87 82 76
42 36 30 26 22 20 18 16 14 12 10 7 3 3 9 15 21 27 34 40 48 53 58 65 70 76 82 87 91 98 101 100 97 94 90 85 81 76
42 37 31 27 23 20 17 16 15 13 11 9 6 4 8 14 20 27 34 41 47 51 57 64 66 69 77 83 87 93 95 95 93 90 88 84 80 77
40 38 33 28 23 20 17 16 15 13 11 9 8 7 10 15 20 27 34 41 46 50 56 62 65 67 71 76 81 85 88 88 89 88 86 83 79 76
40 38 34 29 24 20 17 15 14 13 11 10 9 9 11 16 21 27 34 40 45 50 55 59 61 64 69 73 76 80 81 81 82 82 82 81 78 75
39 37 33 29 25 20 17 14 13 12 11 10 9 10 12 17 22 27 33 39 44 50 54 57 60 63 65 68 72 75 77 76 77 77 78 77 76 74
39 36 33 29 25 21 17 13 11 10 10 9 9 9 12 17 22 28 33 38 44 49 54 56 59 64 67 66 67 69 70 71 73 73 72 72 72 70
39 36 33 30 26 21 17 13 10 8 7 7 7 9 12 16 20 26 31 36 42 47 51 54 57 62 68 69 68 68 68 67 68 69 68 67 68 69
38 36 33 31 27 22 17 13 9 6 4 4 6 8 11 15 19 24 28 33 39 45 50 53 56 61 67 70 70 69 69 67 65 64 65 65 66 67
37 36 34 31 28 24 18 13 9 5 2 2 5 8 11 15 19 23 27 32 38 43 47 51 54 59 66 71 72 71 69 67 64 62 62 61 60 62
35 35 34 31 29 25 20 14 9 5 1 3 6 9 12 15 19 22 26 31 36 41 45 50 54 58 64 69 71 71 70 67 64 62 61 58 57 56

GEFSNE_500_meanwind_054.txt.gz
Wind_Speed
64 61 57 53 49 45 41 36 30 23 20 21 22 22 25 33 44 59 75 89 101 110 119 126 129 130 128 124 120 116 112 108 103 99 93 87 79 72
62 59 55 51 47 44 40 36 32 26 20 19 20 21 23 28 38 51 65 79 92 101 111 120 126 129 128 126 122 118 114 109 105 100 96 91 82 75
60 57 53 50 46 43 39 35 32 28 22 18 19 19 20 25 34 44 56 69 81 92 102 112 121 126 128 127 124 120 116 112 107 102 98 94 87 79
58 55 52 47 45 41 37 34 31 28 23 18 17 17 18 22 30 39 49 60 71 83 93 104 114 122 126 127 125 122 118 114 109 105 100 96 91 83
56 53 50 46 43 40 36 33 30 27 23 18 15 15 16 20 27 36 44 53 62 73 84 94 105 116 123 126 125 123 119 115 110 106 103 99 94 87
54 52 48 44 41 38 35 32 29 26 22 18 15 13 13 18 25 33 41 49 56 65 74 84 96 107 118 124 124 123 120 117 113 109 105 101 96 90
53 51 47 42 40 37 34 31 27 24 21 18 14 12 12 16 24 31 39 45 51 58 66 76 87 99 111 120 124 123 121 118 115 110 106 103 98 93
51 49 46 41 38 36 33 30 28 25 21 18 14 11 11 15 23 30 37 43 47 52 60 69 79 90 103 114 121 123 122 119 116 112 108 104 100 95
51 48 45 40 36 33 31 29 27 24 21 18 14 11 10 14 22 29 35 41 45 49 53 60 71 81 94 107 117 122 122 120 117 113 109 105 101 97
50 47 44 39 34 32 30 28 27 24 21 18 14 11 10 13 21 28 34 39 42 45 49 54 64 74 87 100 111 119 121 120 118 114 111 107 103 99
49 46 43 39 34 31 29 27 26 24 21 18 14 11 10 13 20 26 32 37 40 43 45 49 57 67 80 91 104 114 119 120 118 115 112 108 104 100
48 45 43 38 33 29 27 26 25 23 21 19 15 11 9 12 19 26 31 36 39 41 43 46 52 62 72 85 96 108 116 119 118 116 113 109 106 102
47 44 42 38 33 28 26 25 24 23 21 18 15 11 8 11 17 24 30 35 38 40 42 44 49 57 67 79 91 102 111 116 117 116 114 110 106 102
46 43 41 38 33 28 25 23 23 22 20 18 15 12 8 8 14 22 28 33 37 40 41 42 46 53 62 73 85 96 106 113 116 115 113 111 107 102
45 42 40 38 33 28 25 22 21 21 20 18 15 12 7 6 11 18 25 31 35 38 40 42 45 51 60 69 79 91 101 109 114 114 113 110 107 103
44 42 40 38 34 30 25 22 20 19 18 17 15 12 7 4 8 14 21 28 33 36 39 41 45 51 58 66 75 85 96 105 111 113 112 109 106 103
42 41 39 37 35 30 26 23 20 18 17 16 15 12 7 3 5 11 17 24 31 34 36 40 44 50 58 65 72 81 91 100 106 110 110 107 105 102
40 39 38 36 34 30 25 23 20 18 16 15 13 11 7 3 2 9 15 22 27 32 35 38 44 50 57 63 70 77 86 94 101 106 108 106 103 101
39 38 37 35 34 30 26 22 20 17 14 13 11 9 7 4 2 8 14 20 26 30 33 37 43 48 55 61 66 74 81 88 95 101 104 102 100 98
38 37 36 34 33 30 26 23 20 17 13 11 10 8 6 4 3 7 14 20 26 29 31 36 41 45 51 58 62 69 77 84 90 95 98 97 96 94
37 36 35 33 32 30 27 23 20 16 12 10 8 6 4 4 5 8 13 19 24 28 33 37 40 44 48 54 59 65 73 79 83 88 93 95 93 91
35 34 34 33 31 30 27 23 20 16 12 9 6 5 3 4 6 9 13 18 25 31 34 36 40 43 46 52 59 64 70 76 79 83 87 89 89 88
34 33 33 32 30 29 27 24 20 16 11 7 5 4 3 4 7 10 14 18 25 31 33 35 39 42 47 52 58 62 66 72 76 80 83 85 82 80

GEFSNE_500_meanwind_060.txt.gz
Wind_Speed
76 76 75 74 73 71 69 67 66 61 53 50 50 48 46 42 38 33 30 29 33 45 59 70 80 90 99 106 115 122 126 127 126 123 118 113 107 101
75 74 73 72 70 68 66 64 63 61 54 49 48 46 44 41 37 33 29 28 31 42 57 68 78 89 97 104 113 121 126 127 126 124 120 115 110 104
73 72 70 70 68 66 63 61 60 58 54 48 47 45 43 40 36 33 29 27 28 39 54 67 77 88 96 102 110 120 126 127 126 125 121 117 112 106
71 70 68 68 65 63 61 58 57 55 52 47 44 43 42 40 36 32 29 26 26 34 50 64 75 86 95 100 108 118 125 127 127 125 121 118 113 109
69 68 66 66 63 61 58 56 55 53 50 47 43 42 40 39 35 31 28 25 24 29 43 60 72 84 94 99 106 116 123 126 126 125 122 118 115 110
67 66 64 63 62 59 56 54 53 50 47 45 43 41 39 38 35 31 27 24 23 25 36 53 68 80 92 98 104 113 122 125 126 124 121 118 115 110
65 63 62 61 60 58 56 53 52 49 46 44 42 40 39 37 35 31 26 22 21 22 30 46 62 76 89 97 103 111 119 125 126 125 121 118 115 111
63 61 60 59 58 55 54 52 51 48 45 43 41 40 38 36 34 30 25 21 19 20 26 38 54 69 83 94 101 108 117 123 126 125 122 118 115 112
61 60 58 57 56 53 51 50 48 46 43 42 41 39 37 36 33 28 24 19 17 18 22 32 47 60 76 89 98 106 115 121 124 124 122 119 116 113
59 58 56 55 54 52 49 48 47 44 41 40 39 38 36 34 31 26 22 18 16 16 20 29 40 53 67 82 93 101 111 119 123 123 122 119 117 114
57 57 55 53 52 50 49 47 45 42 39 38 38 36 35 33 29 25 19 16 14 15 19 27 36 46 59 73 86 96 106 115 121 122 122 120 117 115
55 54 53 52 50 49 47 46 44 40 37 35 35 34 33 31 27 23 18 14 13 15 20 27 34 43 53 66 78 90 101 111 118 121 121 120 119 116
53 52 51 50 49 47 46 45 43 39 35 34 33 32 31 29 26 21 16 13 13 16 21 27 33 41 49 59 72 84 95 106 115 119 120 120 119 117
51 50 49 48 47 45 44 43 42 38 35 33 32 30 29 27 24 19 14 11 12 16 21 27 33 39 47 54 64 77 88 100 111 117 119 120 120 117
50 49 48 47 45 44 43 41 40 37 34 32 30 28 28 25 22 18 13 9 12 16 22 27 33 39 45 52 59 70 82 94 106 114 119 120 119 118
48 48 47 46 44 42 41 40 38 36 33 31 29 27 26 23 20 16 11 8 11 17 22 27 32 38 44 50 57 65 76 88 101 111 116 119 119 118
46 46 45 44 43 41 40 38 37 35 33 30 28 26 24 22 18 15 10 7 10 17 23 28 32 37 43 48 54 61 71 82 95 106 114 118 118 117
44 44 43 42 41 40 38 37 35 34 31 29 26 24 22 20 17 13 9 6 9 15 22 28 32 36 41 45 51 58 66 76 89 101 111 116 118 117
43 42 41 40 40 39 37 35 34 32 29 27 25 22 20 18 15 12 9 6 9 15 20 27 31 35 39 43 49 56 64 73 84 96 107 114 115 115
41 41 40 39 38 37 36 34 32 30 27 26 24 21 18 16 15 12 8 4 7 13 19 24 29 34 38 43 48 54 62 70 80 90 102 109 113 113
39 39 38 38 37 36 35 32 30 28 26 24 22 18 16 15 13 11 6 2 6 12 17 22 26 31 36 41 46 53 60 68 76 86 97 105 111 113
37 37 37 36 36 35 33 31 29 27 24 22 20 16 14 13 11 9 5 1 5 11 15 19 23 27 32 37 43 51 59 66 74 83 93 102 107 111
35 35 35 35 34 34 32 30 27 25 23 21 18 15 13 11 9 7 4 1 4 9 13 17 21 24 29 35 41 49 58 65 73 80 88 95 101 105

GEFSNE_500_meanwind_066.txt.gz
Wind_Speed
65 66 68 69 69 69 70 70 70 69 68 68 71 72 73 72 69 67 65 62 59 55 51 48 46 44 44 45 50 56 63 71 80 92 107 118 125 128
66 66 68 68 69 69 69 69 70 70 70 67 68 69 70 69 66 64 62 60 56 53 49 47 44 42 41 43 47 52 59 67 76 88 101 113 120 125
65 65 67 67 68 68 68 68 68 70 70 67 66 66 66 65 62 61 60 57 54 51 48 46 43 40 38 40 45 51 58 66 75 85 98 110 118 122
64 65 65 66 66 67 66 66 67 69 70 68 65 64 63 61 59 58 56 54 52 49 47 45 42 39 37 39 45 52 60 67 74 82 94 107 116 121
63 63 64 65 65 65 65 65 66 67 68 67 64 62 60 58 57 55 53 51 49 47 46 44 41 38 36 38 45 53 61 68 74 81 92 104 114 119
62 62 63 63 63 63 63 64 65 65 65 65 63 60 58 57 56 54 50 48 47 46 44 42 40 37 35 37 45 54 62 69 74 80 91 103 112 118
59 60 61 61 61 62 62 62 63 63 63 63 62 59 56 56 54 52 49 46 44 45 43 41 39 35 34 36 45 55 62 70 75 81 90 102 111 118
58 58 59 59 60 60 60 60 61 62 62 61 60 57 55 54 52 49 48 46 42 42 43 39 36 32 32 34 44 55 63 71 77 81 90 101 110 118
56 57 58 58 58 58 58 58 58 59 60 59 58 55 54 53 50 47 46 45 43 41 40 36 33 30 29 33 43 55 64 71 77 82 89 100 109 116
55 56 56 56 57 57 56 55 56 56 56 56 55 53 52 50 48 46 45 43 40 39 38 34 30 27 27 31 43 57 66 71 76 82 89 100 108 116
53 54 54 54 55 56 55 54 54 53 53 53 52 51 50 47 46 45 43 41 38 37 35 31 27 24 23 29 43 58 67 72 77 83 89 99 108 115
51 52 53 53 54 54 53 53 52 52 52 50 49 48 47 45 44 43 41 39 37 33 31 28 25 21 20 26 40 59 68 72 77 84 90 99 107 115
50 51 51 52 52 52 51 51 51 50 50 48 46 45 44 42 41 41 39 37 34 31 28 25 21 18 18 24 38 57 68 74 78 84 91 99 106 114
49 50 50 50 50 50 50 49 49 49 48 46 44 43 41 40 39 38 36 34 31 28 25 22 18 15 15 21 36 54 68 76 80 85 93 98 105 113
48 48 48 49 49 48 48 47 47 46 45 43 42 41 39 38 37 34 33 31 28 25 22 18 15 12 13 19 33 51 65 74 80 85 92 97 104 112
46 46 47 47 47 46 45 45 45 44 43 41 40 39 38 37 35 32 30 29 26 22 19 15 12 10 11 17 29 47 63 72 79 85 91 96 103 111
45 45 45 45 44 44 44 43 43 42 41 40 38 37 36 34 33 30 28 27 24 20 17 13 10 8 10 16 25 42 59 70 78 85 91 97 105 111
43 42 43 43 42 42 42 41 41 41 39 38 37 35 33 32 30 28 26 24 22 18 14 11 8 8 9 14 24 38 55 68 77 84 90 96 104 112
41 41 41 41 40 40 39 39 39 39 37 36 34 32 30 29 27 25 24 22 19 16 12 9 7 7 9 14 22 34 50 65 75 82 88 95 102 110
39 39 39 38 38 38 37 37 37 37 35 33 31 29 28 26 24 22 21 20 17 13 10 7 6 8 10 14 20 30 44 60 74 81 87 92 99 107
36 36 36 35 35 35 35 35 34 34 32 30 28 27 25 23 21 20 19 18 15 11 7 5 6 8 11 15 19 27 38 53 69 79 86 91 97 106
34 33 33 33 33 32 32 32 31 31 30 28 26 24 22 21 19 18 17 15 13 9 6 4 5 8 12 16 20 26 35 48 63 76 84 90 96 104
31 30 30 30 30 29 29 29 29 28 27 26 24 22 20 19 17 16 15 13 11 8 5 5 6 8 12 17 21 26 34 45 58 70 80 86 94 101

GEFSNE_500_meanwind_072.txt.gz
Wind_Speed
63 62 62 61 61 61 62 62 63 62 61 62 64 64 65 65 65 65 66 67 68 69 71 73 74 75 76 77 77 77 77 78 78 78 79 80 81 84
63 63 62 61 62 63 63 63 64 64 63 62 63 64 64 65 66 66 67 68 69 70 72 73 74 75 75 75 74 73 73 73 73 74 74 74 75 77
64 63 62 63 63 63 64 65 65 64 63 62 62 63 64 65 66 66 67 68 68 70 71 72 72 73 73 72 71 70 70 70 70 71 71 70 69 69
63 63 63 64 63 63 64 64 64 64 63 62 61 62 64 65 65 66 66 67 68 69 70 71 70 70 69 69 68 68 68 68 69 68 66 65 63 63
63 62 62 63 62 63 63 63 63 63 63 61 60 62 63 64 65 65 66 66 67 68 68 68 67 67 66 66 66 66 66 66 65 63 61 58 57 58
61 61 62 62 62 63 63 63 63 62 62 61 61 62 62 63 64 64 64 64 65 65 66 65 65 64 64 64 64 64 63 62 60 57 54 53 53 53
61 61 61 61 62 62 62 62 61 61 61 61 61 61 61 62 63 63 64 64 63 63 64 62 63 62 62 62 61 61 59 57 54 51 50 50 49 50
60 60 60 60 60 60 60 60 59 59 59 60 60 60 60 61 61 62 63 63 61 60 62 59 60 60 60 59 58 57 55 52 49 47 46 46 46 47
59 59 58 58 59 59 58 58 57 57 58 59 58 58 59 59 61 61 62 62 60 59 60 58 57 58 57 56 55 53 50 46 43 42 42 42 43 46
58 58 58 58 58 57 56 55 55 56 57 58 57 57 58 58 59 60 60 60 57 56 58 57 55 55 54 53 51 48 45 42 39 38 38 39 42 46
57 56 56 56 56 55 54 54 54 55 56 56 56 56 55 56 57 58 58 58 55 52 55 56 55 54 51 49 46 43 41 38 36 35 35 37 41 45
55 55 54 54 54 54 54 53 53 53 54 53 53 53 53 54 55 56 56 56 55 51 51 53 53 53 47 42 42 40 37 35 33 34 34 35 40 45
53 53 53 53 53 53 53 52 51 52 51 51 51 51 52 52 52 53 53 54 52 50 50 51 50 48 45 40 37 36 34 31 31 32 31 35 41 45
51 51 51 52 52 52 52 51 50 50 49 49 49 50 50 50 50 50 50 50 49 48 48 49 46 44 42 39 35 32 30 28 27 28 31 37 42 47
51 51 50 50 50 49 49 49 48 48 47 48 48 48 48 48 48 48 47 46 45 46 47 45 43 41 40 37 32 29 25 24 24 26 32 39 44 49
50 50 49 48 47 47 47 47 46 45 46 46 46 46 46 46 45 44 44 43 42 42 43 42 40 38 36 34 30 25 23 21 22 25 34 40 46 51
49 48 46 45 45 44 44 43 43 44 44 43 43 43 43 42 42 41 41 40 39 38 38 38 37 35 33 31 26 23 21 19 20 26 35 41 47 52
46 44 43 42 42 42 41 41 41 41 41 41 41 40 40 39 38 38 38 37 37 36 35 34 32 30 29 27 24 20 18 16 20 28 36 44 50 55
43 41 40 39 38 38 38 38 39 38 38 38 37 37 36 36 35 35 35 34 33 33 33 31 28 26 24 22 21 18 14 13 20 30 38 47 54 59
40 39 37 36 36 36 35 35 35 35 35 35 35 34 34 33 33 32 32 31 30 30 29 27 25 23 21 19 17 14 11 12 21 32 41 48 54 59
37 35 34 33 33 33 32 32 33 33 32 32 32 32 31 31 30 30 29 29 28 27 25 24 22 20 19 17 14 11 9 13 23 33 42 50 55 59
33 31 30 29 29 30 30 30 30 30 30 29 29 29 29 29 28 27 26 26 25 24 22 21 19 18 17 15 12 8 8 16 24 33 44 51 55 58
29 27 27 27 27 27 27 28 27 27 27 27 27 28 27 26 25 24 24 24 23 22 20 18 17 16 15 12 9 6 8 17 26 34 44 51 54 57

GEFSNE_500_meanwind_078.txt.gz
Wind_Speed
69 69 69 68 68 68 68 67 67 66 63 62 62 62 64 63 63 64 64 64 64 64 64 64 63 64 64 64 65 65 65 66 67 68 68 70 71 73
68 69 68 68 68 68 67 67 67 66 63 60 61 62 63 63 64 64 65 65 64 64 65 65 65 65 65 65 66 66 66 67 68 69 70 71 72 74
68 68 68 68 68 68 68 67 66 66 64 61 62 62 63 64 65 65 65 65 65 66 65 65 65 65 65 66 66 67 68 68 69 70 71 72 73 75
67 68 67 68 68 67 67 66 65 65 64 62 62 63 63 64 65 64 65 65 65 65 65 65 65 65 65 66 67 68 68 69 70 71 72 74 76 77
67 67 67 68 67 67 67 66 66 65 65 63 62 63 63 63 64 64 64 64 63 63 64 64 65 65 65 66 67 68 69 70 71 72 74 75 77 79
67 66 66 66 65 66 66 66 66 65 65 64 63 62 62 63 64 63 63 62 61 62 62 63 64 65 65 67 68 68 69 71 72 73 75 76 77 79
64 64 63 64 65 65 66 65 65 64 64 63 62 61 61 62 62 62 61 61 61 61 62 62 63 64 65 66 67 68 70 71 72 73 74 75 76 78
60 60 61 61 62 62 62 62 62 61 61 61 60 60 60 60 61 61 61 61 60 60 62 62 63 63 64 65 66 68 69 70 72 72 73 74 75 76
57 57 57 58 59 59 59 60 59 59 59 60 60 59 59 59 60 60 61 60 60 61 62 61 62 62 63 64 65 66 68 69 70 71 72 72 73 72
56 55 55 55 55 56 56 57 57 58 58 58 57 57 57 58 59 60 60 61 60 60 61 60 60 62 62 62 63 64 66 68 69 70 70 70 69 68
54 54 54 54 54 55 55 54 55 55 56 56 56 56 56 57 58 59 59 60 58 57 59 60 60 61 61 59 60 62 64 66 67 67 67 66 64 64
52 52 52 52 53 54 54 54 53 53 54 55 55 55 55 55 57 57 58 58 57 56 56 59 60 61 59 56 57 58 60 62 64 64 63 61 61 61
50 50 51 52 52 52 53 52 52 53 53 53 54 53 54 54 54 55 55 55 55 55 56 58 58 58 58 55 53 54 57 59 60 60 58 57 57 57
47 48 49 49 50 50 50 50 50 51 51 51 51 51 51 51 52 53 53 53 54 54 55 56 56 56 55 54 51 50 52 55 55 54 53 53 53 53
46 46 46 47 47 47 48 49 49 49 49 49 48 48 49 49 50 50 50 51 51 51 52 53 53 53 52 52 50 48 49 49 50 51 50 50 49 48
45 45 45 45 46 46 46 47 47 47 47 46 46 46 47 47 47 48 48 49 48 47 48 50 50 49 49 49 48 47 47 46 46 48 47 45 44 42
44 44 45 45 45 45 45 45 45 43 43 43 43 43 44 44 44 45 45 45 44 44 45 46 47 47 46 46 46 45 44 43 44 45 43 40 37 37
43 42 42 42 43 43 43 42 41 41 41 40 40 40 41 41 41 42 42 42 41 41 42 43 44 44 43 42 44 44 42 41 41 41 38 35 32 32
40 40 39 39 39 38 38 38 38 38 38 38 38 38 38 38 38 38 39 39 39 39 40 41 42 41 40 38 38 43 42 39 38 36 34 31 27 25
37 37 36 36 35 34 35 34 34 35 35 35 35 35 35 35 35 36 37 37 37 37 37 38 39 39 38 36 35 37 40 38 34 31 28 24 21 21
34 34 33 33 33 33 33 32 32 32 32 32 32 32 33 33 34 34 34 34 34 34 34 35 36 36 35 35 34 33 35 34 29 25 21 18 17 18
33 33 32 31 31 31 30 29 29 30 29 29 30 31 31 31 32 32 32 32 32 31 31 32 32 33 33 33 32 31 30 29 25 20 16 14 16 18
32 31 30 29 29 28 27 27 27 27 27 27 28 29 29 29 29 29 29 29 29 29 29 29 30 30 31 31 30 28 26 24 20 15 13 14 16 19

GEFSNE_500_meanwind_084.txt.gz
Wind_Speed
82 82 82 82 82 82 82 82 82 80 76 74 74 73 73 73 74 74 72 72 71 70 69 67 66 66 65 64 64 64 64 63 63 63 63 63 63 63
84 84 84 84 83 83 83 82 82 81 78 73 74 74 74 74 74 73 72 72 71 71 70 68 67 67 66 65 65 64 64 64 64 64 64 64 64 64
85 85 84 84 84 83 83 82 81 80 78 73 74 74 74 74 74 73 72 72 71 71 70 69 68 67 66 66 65 65 65 65 65 65 66 66 66 65
83 83 82 81 81 80 80 80 79 78 77 74 72 73 73 73 73 73 72 71 71 71 70 69 69 68 67 66 66 66 66 66 66 66 66 66 66 67
79 79 77 77 76 75 75 75 74 74 74 72 69 70 71 71 71 70 70 70 70 69 69 69 68 67 66 66 66 66 66 66 66 66 66 66 67 67
74 72 71 71 70 70 70 69 69 69 69 68 67 67 68 68 68 67 67 67 67 68 68 67 67 67 67 67 67 66 66 66 66 66 67 67 67 67
67 66 65 65 65 65 64 64 64 64 64 64 63 64 65 66 66 66 67 66 66 66 66 66 67 67 67 67 67 67 67 66 66 66 67 67 67 67
62 61 60 60 60 60 60 60 60 60 59 59 59 59 60 62 63 65 65 65 65 65 67 67 67 66 66 66 66 66 65 65 65 66 66 67 67 67
58 57 57 56 57 57 57 58 57 57 57 56 56 56 58 60 61 62 63 63 64 65 65 64 64 63 64 64 64 64 64 64 65 65 66 66 67 67
55 54 54 53 53 53 53 53 54 54 55 55 54 53 54 55 57 59 60 61 62 62 63 63 62 62 62 63 63 63 64 64 65 65 66 66 67 67
51 50 50 50 49 50 50 49 49 49 51 52 52 52 52 53 54 55 56 57 58 59 60 60 60 60 60 60 60 61 62 63 63 64 65 66 67 68
47 46 46 46 46 46 46 46 45 46 47 48 49 49 50 50 51 52 53 54 54 55 56 57 57 58 58 57 58 59 60 61 62 63 64 65 67 68
43 42 42 43 44 44 44 44 44 45 46 46 47 47 48 48 49 50 51 51 52 52 53 54 55 56 56 55 56 57 58 59 60 62 63 64 65 66
41 40 40 40 41 41 42 42 43 44 44 44 45 45 47 48 49 49 50 50 50 50 51 52 53 54 54 54 53 54 55 57 58 59 60 61 62 63
41 39 38 38 38 39 40 41 42 42 43 43 44 45 45 46 47 48 47 48 48 48 49 50 50 51 52 52 52 52 53 54 55 56 57 58 59 60
40 39 38 38 37 38 38 39 40 41 41 42 42 43 43 44 44 44 44 44 44 44 46 47 48 49 49 50 50 49 50 51 52 54 55 56 56 56
38 37 36 36 36 36 37 38 38 39 39 39 39 39 40 40 40 40 41 41 42 42 43 44 45 46 47 47 47 47 48 49 50 52 53 53 53 53
37 36 35 35 35 35 35 35 36 36 37 36 36 36 36 37 37 38 38 38 38 39 41 42 44 45 45 44 45 45 46 48 49 51 51 51 49 50
36 35 34 34 34 34 34 34 34 35 35 34 34 34 34 35 35 35 36 36 36 37 38 40 41 42 43 42 42 44 46 47 48 48 48 48 47 46
34 34 34 34 35 34 34 34 34 34 33 33 32 32 32 33 33 33 34 34 34 35 36 38 40 41 41 40 39 40 44 45 45 45 45 45 45 45
33 33 33 34 34 33 33 33 32 32 32 31 30 30 30 30 30 31 31 32 32 33 34 36 37 38 38 38 37 36 39 42 43 43 43 43 42 40
31 31 31 31 31 30 30 29 29 29 29 28 27 27 28 28 28 28 29 30 31 32 32 33 35 36 36 36 35 35 36 39 41 42 41 40 37 32
30 30 29 28 28 26 26 26 26 26 26 26 26 26 26 26 26 27 28 29 29 30 31 32 32 33 34 34 35 35 36 37 37 36 36 36 32 27

GEFSNE_500_meanwind_090.txt.gz
Wind_Speed
80 82 84 86 88 90 92 93 94 94 92 90 91 91 91 91 90 90 90 90 89 89 88 87 86 84 83 82 80 78 76 74 73 72 69 67 66 65
84 86 88 89 91 91 91 91 92 92 91 87 87 88 89 89 87 86 86 86 87 87 86 86 85 84 83 82 81 79 78 76 74 73 71 70 69 67
87 88 89 89 90 88 87 86 85 85 86 82 80 80 81 81 81 80 80 80 81 81 81 82 82 82 81 81 80 79 78 76 75 74 72 72 70 69
88 88 88 86 84 82 80 79 78 78 78 74 70 71 73 72 72 72 72 72 73 74 74 75 76 77 77 78 78 78 77 76 75 74 73 72 71 70
87 85 82 79 77 75 74 72 71 70 70 68 64 64 64 65 65 64 65 66 67 68 69 69 69 70 71 72 74 74 75 74 73 73 71 71 71 70
81 78 74 72 70 68 67 66 65 65 64 63 61 58 58 59 59 58 59 60 61 62 63 64 65 66 66 67 68 68 69 70 71 71 71 71 70 69
73 70 67 65 63 62 62 60 60 60 59 59 57 55 53 53 54 54 55 55 56 57 58 59 60 61 62 62 63 65 66 67 68 69 69 69 69 68
66 63 61 59 58 57 57 56 55 54 54 53 52 51 49 50 51 51 51 52 52 52 53 54 57 57 59 60 61 62 64 66 66 66 67 68 68 67
60 58 56 55 54 52 51 50 50 50 51 50 49 46 46 46 47 48 48 49 49 50 50 49 51 53 55 57 60 62 63 64 64 65 66 66 67 68
56 54 52 51 50 49 48 47 47 47 47 47 46 45 44 43 44 45 45 46 46 47 47 47 48 50 51 53 54 56 59 60 62 63 64 64 65 65
52 50 49 48 47 47 46 45 45 44 44 44 44 43 42 42 43 43 43 44 43 44 45 45 46 47 48 49 51 54 56 57 58 59 61 62 63 64
48 47 47 46 46 45 45 44 43 42 42 42 42 41 40 40 41 42 42 42 42 42 42 44 45 46 46 47 48 50 52 53 55 56 58 59 60 62
46 45 44 44 44 44 44 43 42 41 40 39 38 38 38 39 40 41 41 42 42 42 41 43 44 45 45 45 46 48 50 52 53 54 56 57 59 60
44 43 43 43 42 42 41 41 41 40 39 38 37 37 37 37 38 39 40 41 41 41 41 42 42 43 45 45 45 46 48 50 52 53 55 56 57 58
44 43 42 42 41 40 39 40 39 39 38 37 36 36 36 36 37 37 38 39 40 40 41 41 42 42 43 44 45 45 46 47 49 50 52 53 54 55
42 41 40 39 39 38 38 38 38 38 37 36 35 35 35 35 36 36 36 37 38 39 39 40 41 42 42 43 43 43 44 45 46 48 50 51 52 53
39 38 37 36 36 36 36 36 35 35 35 34 34 34 34 34 34 35 35 35 35 36 37 38 39 39 40 40 40 41 42 43 44 46 47 48 49 51
38 36 34 33 33 33 33 33 33 33 33 33 33 33 33 33 33 33 34 34 33 34 34 35 36 37 37 37 38 39 40 42 44 45 46 47 47 49
35 34 33 32 32 32 32 32 32 32 32 31 31 31 31 31 31 31 31 31 31 31 31 32 33 34 35 35 36 38 40 41 43 44 45 46 45 46
34 33 32 32 32 32 32 31 30 30 30 29 29 29 29 29 29 29 29 29 29 29 30 30 31 33 34 35 35 36 38 40 41 41 42 43 43 44
32 32 32 32 32 32 31 30 29 28 28 28 27 27 27 27 27 27 27 27 28 28 29 30 31 31 32 33 33 34 36 38 39 40 40 41 41 42
31 32 32 32 31 31 30 29 28 28 27 27 27 26 26 26 26 26 26 27 27 28 28 29 30 31 32 32 33 34 35 37 39 39 40 40 41 40
31 31 32 31 31 30 29 28 28 27 27 26 25 25 25 25 25 25 26 27 27 28 29 29 30 32 32 33 33 34 35 36 38 39 39 40 39 38

GEFSNE_500_meanwind_096.txt.gz
Wind_Speed
67 69 70 72 74 76 78 81 83 84 82 81 83 84 86 87 88 88 88 87 85 84 83 84 85 86 87 87 88 89 90 91 91 91 89 88 86 84
70 72 73 75 77 79 80 82 85 87 87 84 84 84 85 84 82 81 81 80 79 77 77 77 78 79 80 81 82 83 84 85 86 87 87 86 86 85
73 75 76 78 79 81 83 84 85 86 88 83 82 80 79 77 74 73 72 71 71 71 70 70 70 71 71 72 73 74 76 77 78 79 81 82 82 82
75 77 78 80 81 83 84 84 84 83 84 81 76 73 70 69 67 66 65 64 63 63 63 63 63 63 63 63 64 64 65 67 69 71 73 76 77 79
78 79 80 82 83 83 83 82 80 79 77 75 70 66 63 62 61 60 58 57 57 56 57 56 56 57 58 58 58 58 59 60 62 64 66 68 71 73
80 81 82 82 82 81 79 77 75 73 70 67 63 59 57 56 55 54 53 52 52 52 53 53 53 53 53 53 53 54 54 54 55 57 59 61 65 67
80 81 81 80 78 77 75 71 68 65 62 60 57 54 52 51 50 50 50 49 48 49 49 49 50 49 49 50 50 50 50 50 51 53 55 56 58 62
81 80 78 76 74 71 68 65 62 60 57 55 53 50 48 48 48 48 48 47 46 46 47 46 47 46 46 47 47 47 48 48 48 49 51 53 55 56
80 78 75 72 68 65 61 58 56 55 53 52 50 47 46 45 46 46 46 46 44 43 44 43 43 42 42 43 43 44 44 45 45 46 47 50 52 54
77 74 70 65 62 59 56 53 51 49 49 49 47 45 45 44 45 45 44 43 42 41 42 41 39 40 40 40 40 41 41 42 42 43 44 46 48 50
72 68 64 60 56 54 52 49 47 45 46 45 45 44 43 43 44 44 43 43 40 38 39 39 38 38 38 38 39 40 40 40 40 41 42 43 45 47
66 61 57 55 51 50 48 46 44 43 43 43 43 42 42 42 42 43 42 41 40 37 36 37 37 37 36 36 37 38 38 38 39 39 40 42 43 46
60 55 52 50 47 46 45 44 43 42 41 41 40 39 39 40 40 40 40 40 40 38 36 36 36 36 36 34 35 36 37 37 38 38 39 40 42 44
55 51 48 45 44 43 42 41 41 41 40 39 38 38 37 38 37 37 38 39 39 38 36 36 35 34 34 34 33 34 36 37 37 38 38 39 40 41
51 48 45 43 42 40 40 40 40 39 38 37 36 35 35 35 35 35 36 36 36 36 35 35 34 33 33 33 32 33 34 35 36 37 38 38 39 40
47 44 42 41 40 39 38 38 37 37 36 36 35 34 34 34 34 34 34 34 34 33 34 34 33 33 32 32 32 31 32 33 35 36 37 37 38 39
44 41 39 37 36 36 35 35 35 35 35 35 35 34 34 33 33 33 33 32 32 32 32 32 32 32 31 31 31 30 30 31 33 35 36 36 37 38
42 39 37 35 34 33 33 33 33 34 34 34 35 34 33 32 31 31 31 31 31 30 30 30 31 30 30 29 30 30 30 30 32 33 33 34 34 35
39 37 35 33 33 32 32 32 32 33 33 34 34 33 32 31 31 30 30 30 29 29 28 28 28 28 27 27 28 29 29 29 30 30 31 32 33 35
37 35 33 32 32 31 30 31 31 32 32 33 32 32 31 30 30 30 30 29 28 27 26 26 26 26 26 26 26 27 29 29 30 31 32 33 34 35
34 33 32 31 30 30 30 30 30 31 31 32 31 30 30 29 29 29 28 28 27 26 26 26 26 26 26 26 26 27 29 30 30 30 31 32 34 35
32 31 30 30 29 29 29 30 30 31 31 31 30 29 29 29 28 28 27 27 26 26 26 27 27 27 27 27 27 28 29 30 31 31 31 32 33 33
31 30 29 29 29 29 29 30 31 31 31 30 29 28 28 27 27 27 27 27 26 26 26 26 27 27 28 28 29 29 29 31 32 32 32 33 33 34

GEFSNE_500_meanwind_102.txt.gz
Wind_Speed
58 60 61 63 65 67 69 71 73 73 71 71 72 74 75 77 78 79 80 81 82 83 84 84 84 85 85 86 86 87 87 88 88 88 88 88 88 88
60 62 63 65 67 68 70 72 74 76 76 75 76 78 79 80 80 81 81 81 82 82 82 82 82 82 82 82 81 81 81 81 81 81 82 82 83 84
62 63 65 67 68 70 72 73 75 77 79 77 79 80 82 82 82 82 82 82 81 80 79 78 77 76 75 74 72 71 71 71 71 72 73 74 75 77
63 65 67 68 70 72 74 75 77 79 81 80 79 81 82 83 83 82 81 80 77 75 73 71 69 68 66 65 63 63 62 62 62 63 64 66 67 68
65 67 69 71 72 74 76 77 79 81 82 83 81 81 82 82 81 79 77 74 71 68 66 64 61 60 58 57 56 55 55 55 55 56 56 57 59 61
68 69 71 73 75 77 78 80 81 82 83 83 82 81 80 77 76 73 70 66 64 61 59 56 54 52 51 50 50 50 50 50 50 51 51 53 54 55
70 72 74 76 78 79 81 81 82 82 82 81 80 77 73 70 67 65 62 58 56 54 52 50 49 47 46 47 47 46 46 46 46 47 48 49 50 51
72 74 76 78 80 81 82 82 82 81 80 77 74 70 65 62 59 57 54 52 49 47 47 45 45 44 44 44 44 44 44 44 44 44 45 46 47 48
75 78 79 80 81 81 80 79 78 77 74 71 66 61 58 55 53 50 49 47 44 42 42 40 41 41 42 42 42 42 42 42 42 42 43 44 45 45
78 80 81 80 80 80 79 76 73 69 66 63 59 55 52 49 48 46 44 42 40 38 39 37 37 39 40 40 41 40 41 41 41 40 41 41 41 41
80 80 80 80 79 77 75 71 66 61 58 56 53 50 48 46 45 43 41 40 37 36 37 37 36 37 36 37 38 39 39 39 39 39 39 38 38 38
79 78 78 77 74 71 68 64 60 55 53 50 48 46 44 43 42 41 39 38 36 35 35 36 35 35 34 35 37 37 37 37 37 37 36 36 35 35
78 77 75 73 68 65 62 58 55 51 48 46 43 41 40 39 38 38 37 36 35 34 34 34 33 34 33 32 34 35 36 35 35 34 34 33 33 33
77 75 71 67 62 59 56 53 51 48 45 43 40 38 37 36 35 35 35 34 34 33 33 33 32 32 31 31 31 32 33 33 33 32 31 31 31 31
75 71 66 61 57 53 51 49 47 45 42 40 37 35 35 34 33 33 33 33 32 32 32 31 30 29 29 29 29 30 30 30 30 30 30 30 30 31
70 65 60 55 52 50 47 45 44 41 39 36 34 33 32 31 31 31 30 30 30 31 31 30 29 29 28 28 27 27 28 28 28 28 28 29 30 30
65 59 54 50 47 45 42 41 39 37 35 33 32 30 29 29 29 29 29 29 29 29 29 29 29 28 27 27 26 26 26 26 27 27 27 27 27 29
60 54 50 47 43 40 38 36 35 34 32 31 30 29 28 27 28 28 28 28 28 28 28 28 28 27 26 25 25 25 25 26 26 26 26 26 26 27
55 50 46 43 39 36 35 33 32 32 31 30 29 28 27 27 27 27 28 27 27 27 27 27 26 26 25 24 24 24 24 24 24 25 25 26 27 27
50 46 42 39 36 34 33 32 31 30 29 29 28 28 27 27 27 27 27 27 26 26 26 26 26 25 24 24 24 24 24 23 24 25 25 25 26 26
45 42 38 36 34 32 31 30 29 29 28 28 28 28 28 27 27 27 27 27 26 26 25 25 25 24 24 23 23 24 25 24 24 24 25 25 26 26
41 37 35 33 32 31 30 29 28 28 28 28 28 28 27 27 27 27 26 26 25 25 25 25 24 24 23 23 23 23 24 24 24 24 24 25 26 26
37 34 33 31 31 30 29 28 28 27 27 27 27 27 26 26 26 26 26 25 25 25 25 25 25 24 24 24 23 23 24 24 25 25 25 26 26 26